FW6665 Weather Reports


time (UTC)temp
F
wind
direction
speed
knots
gust
knots
rain 1hr
in
rain 24hr
in
rain mn
in
humidity
%
barometer
mb
20260507161706 58 90 0.9 4.3 0.00 0.00 0.00 67 1013.1
20260507161205 58 90 0.9 4.3 0.00 0.00 0.00 66 1013.1
20260507160205 58 94 1.7 4.3 0.00 0.00 0.00 64 1013.1
20260507155704 59 107 0.9 4.3 0.00 0.00 0.00 64 1013.1
20260507155204 59 92 0.9 3.5 0.00 0.00 0.00 65 1013.1
20260507154705 59 92 0.9 2.6 0.00 0.00 0.00 65 1013.1
20260507154204 59 104 0.9 2.6 0.00 0.00 0.00 64 1013.1
20260507153204 59 103 0.9 5.2 0.00 0.00 0.00 63 1013.1
20260507152704 59 104 1.7 5.2 0.00 0.00 0.00 62 1013.2
20260507152204 59 107 1.7 5.2 0.00 0.00 0.00 63 1013.2
20260507151704 60 121 0.0 3.5 0.00 0.00 0.00 63 1013.1
20260507151208 60 121 0.9 4.3 0.00 0.00 0.00 62 1013.2
20260507150706 60 121 1.7 4.3 0.00 0.00 0.00 61 1013.1
20260507145704 60 166 0.9 2.6 0.00 0.00 0.00 64 1013.1
20260507145205 60 165 0.9 2.6 0.00 0.00 0.00 67 1013.1
20260507144209 58 133 0.9 6.1 0.00 0.00 0.00 66 1013.2
20260507143704 58 134 0.9 6.1 0.00 0.00 0.00 66 1013.1
20260507143209 58 137 0.0 6.1 0.00 0.00 0.00 65 1013.1
20260507142704 58 104 0.9 4.3 0.00 0.00 0.00 63 1013.2
20260507142204 58 89 0.0 3.5 0.00 0.00 0.00 63 1013.3
20260507141205 58 93 0.9 4.3 0.00 0.00 0.00 63 1013.3
20260507140705 58 94 0.9 4.3 0.00 0.00 0.00 63 1013.4
20260507134204 58 92 1.7 4.3 0.00 0.00 0.00 63 1013.5
20260507133704 58 90 0.9 4.3 0.00 0.00 0.00 65 1013.5
20260507133205 57 79 0.0 4.3 0.00 0.00 0.00 67 1013.5
20260507132705 57 79 0.0 4.3 0.00 0.00 0.00 67 1013.5
20260507132205 57 79 1.7 4.3 0.00 0.00 0.00 64 1013.5
20260507131705 57 78 0.9 2.6 0.00 0.00 0.00 67 1013.6
20260507131204 57 103 0.0 2.6 0.00 0.00 0.00 67 1013.6
20260507130704 57 103 0.0 2.6 0.00 0.00 0.00 67 1013.6
20260507130205 57 103 0.0 1.7 0.00 0.00 0.00 67 1013.6
20260507125704 57 103 0.0 2.6 0.00 0.00 0.00 67 1013.6
20260507125204 57 103 0.0 3.5 0.00 0.00 0.00 66 1013.6
20260507124204 57 100 0.0 3.5 0.00 0.00 0.00 66 1013.7
20260507123708 57 97 0.0 1.7 0.00 0.00 0.00 66 1013.7
20260507123204 58 97 0.0 3.5 0.00 0.00 0.00 66 1013.6
20260507122706 58 97 0.0 3.5 0.00 0.00 0.00 65 1013.7
20260507122204 58 97 0.9 3.5 0.00 0.00 0.00 64 1013.7
20260507121704 58 97 1.7 1.7 0.00 0.00 0.00 64 1013.7
20260507121204 58 87 0.0 2.6 0.00 0.00 0.00 63 1013.6
20260507120704 58 87 0.9 3.5 0.00 0.00 0.00 62 1013.7
20260507115704 58 87 0.9 5.2 0.00 0.00 0.00 63 1013.7
20260507115205 58 85 0.9 5.2 0.00 0.00 0.00 63 1013.7
20260507114704 59 103 0.9 4.3 0.00 0.00 0.00 62 1013.7
20260507114204 59 103 1.7 3.5 0.00 0.00 0.00 60 1013.8
20260507113704 60 104 0.9 3.5 0.00 0.00 0.00 59 1013.7
20260507113205 61 104 1.7 3.5 0.00 0.00 0.00 59 1013.6
20260507112704 61 118 0.0 5.2 0.00 0.00 0.00 60 1013.7
20260507111703 61 120 0.9 5.2 0.00 0.00 0.00 62 1013.8
20260507111205 60 118 0.9 5.2 0.00 0.00 0.00 65 1013.7
20260507110705 60 118 0.9 5.2 0.00 0.00 0.00 66 1013.8
20260507110204 59 118 0.9 5.2 0.00 0.00 0.00 67 1013.8
20260507105704 58 120 1.7 4.3 0.00 0.00 0.00 70 1013.8
20260507105205 57 87 0.9 4.3 0.00 0.00 0.00 69 1013.8
20260507104709 57 102 0.9 4.3 0.00 0.00 0.00 69 1014.0
20260507104204 57 103 0.9 3.5 0.00 0.00 0.00 69 1013.9
20260507103705 57 103 0.9 3.5 0.00 0.00 0.00 69 1014.0
20260507102205 56 110 0.9 3.5 0.00 0.00 0.00 67 1013.9
20260507101704 56 110 0.9 2.6 0.00 0.00 0.00 69 1013.9
20260507101205 56 110 0.0 4.3 0.00 0.00 0.00 68 1014.0
20260507100204 56 110 0.0 4.3 0.00 0.00 0.00 68 1013.9
20260507095705 57 111 1.7 2.6 0.00 0.00 0.00 66 1014.1
20260507095205 57 114 0.0 1.7 0.00 0.00 0.00 69 1013.9
20260507094704 57 114 0.9 2.6 0.00 0.00 0.00 68 1014.0
20260507094205 57 113 0.0 2.6 0.00 0.00 0.00 67 1013.9
20260507093705 57 113 0.0 2.6 0.00 0.00 0.00 68 1013.9
20260507093204 57 113 0.9 1.7 0.00 0.00 0.00 68 1013.9
20260507092205 57 114 0.0 3.5 0.00 0.00 0.00 70 1013.9
20260507091211 57 113 0.9 3.5 0.00 0.00 0.00 70 1013.7
20260507090705 57 113 0.9 1.7 0.00 0.00 0.00 72 1013.9
20260507085705 56 113 0.0 4.3 0.00 0.00 0.00 73 1013.8
20260507085205 56 113 0.0 4.3 0.00 0.00 0.00 71 1013.9
20260507084705 57 113 0.9 4.3 0.00 0.00 0.00 69 1013.9
20260507083704 58 124 0.9 4.3 0.00 0.00 0.00 71 1013.8
20260507083204 58 124 0.0 4.3 0.00 0.00 0.00 74 1013.8
20260507082704 57 124 0.9 4.3 0.00 0.00 0.00 73 1013.8
20260507082229 57 137 1.7 2.6 0.00 0.00 0.00 76 1013.9
20260507081704 56 144 0.9 1.7 0.00 0.00 0.00 77 1013.8
20260507081204 55 145 0.9 2.6 0.00 0.00 0.00 80 1013.9
20260507080703 54 145 0.0 3.5 0.00 0.00 0.00 81 1013.8
20260507080204 54 145 0.0 3.5 0.00 0.00 0.00 81 1013.8
20260507075704 54 145 1.7 3.5 0.00 0.00 0.00 80 1013.8
20260507074704 53 199 0.9 3.5 0.00 0.00 0.00 83 1013.8
20260507073708 52 268 0.0 1.7 0.00 0.00 0.00 83 1013.7
20260507073204 51 276 0.0 0.9 0.00 0.00 0.00 83 1013.8
20260507072705 51 276 0.0 0.9 0.00 0.00 0.00 83 1013.7
20260507072204 50 276 0.0 0.9 0.00 0.00 0.00 83 1013.7
20260507071704 49 276 0.0 0.9 0.00 0.00 0.00 84 1013.7
20260507071203 49 276 0.0 0.9 0.00 0.00 0.00 84 1013.7
20260507070704 49 276 0.0 0.9 0.00 0.00 0.00 84 1013.7
20260507070203 49 276 0.0 0.9 0.00 0.00 0.00 84 1013.7
20260507065704 49 276 0.0 0.9 0.00 0.00 0.00 84 1013.7
20260507065204 49 276 0.0 0.0 0.00 0.00 0.00 84 1013.7
20260507064704 49 276 0.0 0.0 0.00 0.00 0.00 84 1013.7
20260507064204 49 276 0.0 0.0 0.00 0.00 0.00 84 1013.6
20260507063707 49 276 0.0 0.0 0.00 0.00 0.00 83 1013.6
20260507063204 49 276 0.0 0.0 0.00 0.00 0.00 83 1013.6
20260507062703 49 276 0.0 0.0 0.00 0.00 0.00 83 1013.6
20260507062205 49 276 0.0 0.0 0.00 0.00 0.00 83 1013.5
20260507061705 49 276 0.0 0.0 0.00 0.00 0.00 83 1013.4
20260507060704 49 276 0.0 0.0 0.00 0.00 0.00 83 1013.4
20260507060205 49 276 0.0 0.0 0.00 0.00 0.00 83 1013.4
20260507055704 48 276 0.0 0.0 0.00 0.00 0.00 83 1013.4
20260507055205 48 276 0.0 0.0 0.00 0.00 0.00 83 1013.3
20260507054705 48 276 0.0 0.0 0.00 0.00 0.00 83 1013.3
20260507054205 48 276 0.0 0.0 0.00 0.00 0.00 83 1013.2
20260507053705 48 276 0.0 0.0 0.00 0.00 0.00 83 1013.1
20260507053204 48 276 0.0 0.0 0.00 0.00 0.00 83 1013.2
20260507052705 48 276 0.0 0.0 0.00 0.00 0.00 83 1013.2
20260507052208 48 276 0.0 0.0 0.00 0.00 0.00 83 1013.1
20260507051707 48 276 0.0 0.0 0.00 0.00 0.00 83 1013.1
20260507045705 48 276 0.0 0.0 0.00 0.00 0.00 84 1013.2
20260507045205 47 276 0.0 0.0 0.00 0.00 0.00 84 1013.1
20260507044705 48 276 0.0 0.0 0.00 0.00 0.00 84 1013.0
20260507044203 48 276 0.0 0.0 0.00 0.00 0.00 84 1013.0
20260507043704 48 276 0.0 0.0 0.00 0.00 0.00 84 1013.0
20260507043205 48 276 0.0 0.0 0.00 0.00 0.00 84 1013.0
20260507042708 48 276 0.0 0.0 0.00 0.00 0.00 84 1013.0
20260507042204 48 276 0.0 0.0 0.00 0.00 0.00 84 1012.9
20260507041705 48 276 0.0 0.0 0.00 0.00 0.00 84 1012.9
20260507041204 48 276 0.0 0.0 0.00 0.00 0.00 84 1012.9
20260507040704 48 276 0.0 0.0 0.00 0.00 0.00 84 1012.8
20260507040205 48 276 0.0 0.0 0.00 0.00 0.00 84 1012.9
20260507035704 48 276 0.0 0.0 0.00 0.00 0.00 84 1012.9
20260507034705 48 276 0.0 0.0 0.00 0.00 0.00 84 1012.9
20260507034204 48 276 0.0 0.0 0.00 0.00 0.00 84 1012.9
20260507033704 48 276 0.0 0.0 0.00 0.00 0.00 84 1012.9
20260507033210 49 276 0.0 0.0 0.00 0.00 0.00 84 1012.8
20260507032704 49 276 0.0 0.0 0.00 0.00 0.00 84 1012.8
20260507032206 49 276 0.0 0.0 0.00 0.00 0.00 84 1012.7
20260507031705 49 276 0.0 0.0 0.00 0.00 0.00 84 1012.8
20260507031204 49 276 0.0 0.0 0.00 0.00 0.00 84 1012.7
20260507030704 49 276 0.0 0.0 0.00 0.00 0.00 84 1012.8
20260507030204 49 276 0.0 0.0 0.00 0.00 0.00 84 1012.8
20260507025709 49 276 0.0 0.0 0.00 0.00 0.00 84 1012.8
20260507025204 49 276 0.0 0.0 0.00 0.00 0.00 84 1012.8
20260507024704 49 276 0.0 0.0 0.00 0.00 0.00 84 1012.8
20260507024204 49 276 0.0 0.0 0.00 0.00 0.00 84 1012.8
20260507023704 48 276 0.0 0.0 0.00 0.00 0.00 84 1012.7
20260507022704 48 276 0.0 0.0 0.00 0.00 0.00 84 1012.6
20260507022204 48 276 0.0 0.0 0.00 0.00 0.00 84 1012.7
20260507021705 48 276 0.0 0.0 0.00 0.00 0.00 84 1012.5
20260507021204 48 276 0.0 0.0 0.00 0.00 0.00 84 1012.6
20260507020704 48 276 0.0 0.0 0.00 0.00 0.00 84 1012.5
20260507015704 49 276 0.0 0.0 0.00 0.00 0.00 84 1012.5
20260507015204 49 276 0.0 0.0 0.00 0.00 0.00 84 1012.5
20260507014704 49 276 0.0 0.0 0.00 0.00 0.00 84 1012.4
20260507014207 49 276 0.0 0.0 0.00 0.00 0.00 84 1012.5
20260507013704 49 276 0.0 0.0 0.00 0.00 0.00 84 1012.5
20260507013204 49 276 0.0 0.0 0.00 0.00 0.00 84 1012.5
20260507011704 49 276 0.0 0.0 0.00 0.00 0.00 84 1012.5
20260507010705 49 276 0.0 0.0 0.00 0.00 0.00 84 1012.5
20260507010204 49 276 0.0 0.0 0.00 0.00 0.00 84 1012.5
20260507005704 49 276 0.0 0.0 0.00 0.00 0.00 84 1012.4
20260507005206 49 276 0.0 0.0 0.00 0.00 0.00 84 1012.4
20260507004705 49 276 0.0 0.0 0.00 0.00 0.00 83 1012.6
20260507004210 49 276 0.0 0.0 0.00 0.00 0.00 83 1012.5
20260507003204 49 276 0.0 0.0 0.00 0.00 0.00 83 1012.5
20260507002704 49 276 0.0 0.0 0.00 0.00 0.00 83 1012.5
20260507002204 49 276 0.0 0.0 0.00 0.00 0.00 83 1012.5
20260507001705 49 276 0.0 0.0 0.00 0.00 0.00 83 1012.6
20260507001205 49 276 0.0 0.0 0.00 0.00 0.00 83 1012.4
20260507000704 49 276 0.0 0.0 0.00 0.00 0.00 83 1012.6
20260507000205 49 276 0.0 0.0 0.00 0.00 0.00 83 1012.5
20260506235705 49 276 0.0 0.0 0.00 0.00 0.00 83 1012.5
20260506235205 49 276 0.0 0.0 0.00 0.00 0.00 83 1012.5
20260506234705 49 276 0.0 0.0 0.00 0.00 0.00 83 1012.5
20260506234204 49 276 0.0 0.0 0.00 0.00 0.00 83 1012.5
20260506233704 49 276 0.0 0.0 0.00 0.00 0.00 83 1012.4
20260506233204 49 276 0.0 0.0 0.00 0.00 0.00 82 1012.4
20260506232709 49 276 0.0 0.9 0.00 0.00 0.00 83 1012.5
20260506232207 50 276 0.0 0.9 0.00 0.00 0.00 82 1012.5
20260506231706 50 276 0.0 1.7 0.00 0.00 0.00 82 1012.3
20260506231205 50 276 0.0 1.7 0.00 0.00 0.00 82 1012.4
20260506230705 50 276 0.0 1.7 0.00 0.00 0.00 82 1012.3
20260506230205 50 276 0.0 0.9 0.00 0.00 0.00 82 1012.5
20260506225704 50 276 0.0 1.7 0.00 0.00 0.00 82 1012.3
20260506225204 50 276 0.0 2.6 0.00 0.00 0.00 82 1012.4
20260506224705 50 276 0.0 2.6 0.00 0.00 0.00 82 1012.4
20260506224204 50 276 0.0 2.6 0.00 0.00 0.00 81 1012.3
20260506223704 50 275 0.0 1.7 0.00 0.00 0.00 81 1012.3
20260506222204 50 275 0.0 0.9 0.00 0.00 0.00 80 1012.4
20260506221204 51 275 0.0 1.7 0.00 0.00 0.00 79 1012.3
20260506220705 51 275 0.0 1.7 0.00 0.00 0.00 79 1012.3
20260506220208 51 275 0.0 1.7 0.00 0.00 0.00 79 1012.3
20260506215205 51 275 0.0 2.6 0.00 0.00 0.00 78 1012.1
20260506214706 51 275 0.0 2.6 0.00 0.00 0.00 78 1012.2
20260506213705 51 275 0.9 2.6 0.00 0.00 0.00 76 1012.2
20260506213204 51 275 0.0 2.6 0.00 0.00 0.00 76 1012.1
20260506212204 51 275 0.0 1.7 0.00 0.00 0.00 75 1012.1
20260506211704 51 275 0.0 1.7 0.00 0.00 0.00 75 1012.1
20260506211205 51 275 0.0 2.6 0.00 0.00 0.00 74 1012.0
20260506210205 51 275 0.0 2.6 0.00 0.00 0.00 73 1012.0
20260506205706 52 275 0.0 2.6 0.00 0.00 0.00 73 1012.0
20260506204704 52 275 0.0 2.6 0.00 0.00 0.00 72 1011.9
20260506204204 52 275 0.0 2.6 0.00 0.00 0.00 72 1011.9
20260506203705 52 275 0.0 2.6 0.00 0.00 0.00 72 1011.9
20260506202704 52 275 0.0 3.5 0.00 0.00 0.00 71 1011.9
20260506202205 52 272 0.0 3.5 0.00 0.00 0.00 70 1011.8
20260506201704 52 272 0.0 3.5 0.00 0.00 0.00 70 1011.8
20260506201203 53 271 0.9 3.5 0.00 0.00 0.00 70 1011.6
20260506200705 53 252 0.9 2.6 0.00 0.00 0.00 69 1011.7
20260506200204 53 341 0.9 2.6 0.00 0.00 0.00 69 1011.4
20260506195705 53 341 0.9 2.6 0.00 0.00 0.00 69 1011.5
20260506195205 53 353 0.9 2.6 0.00 0.00 0.00 69 1011.5
20260506194703 53 354 0.9 0.9 0.00 0.00 0.00 69 1011.4
20260506193204 53 7 0.0 2.6 0.00 0.00 0.00 68 1011.2
20260506192705 53 319 0.0 4.3 0.00 0.00 0.00 68 1011.1
20260506192204 53 276 0.0 4.3 0.00 0.00 0.00 67 1011.3
20260506191704 53 276 0.0 2.6 0.00 0.00 0.00 67 1011.2
20260506191209 53 262 0.0 2.6 0.00 0.00 0.00 67 1011.1
20260506190708 53 262 0.0 2.6 0.00 0.00 0.00 67 1011.1
20260506185204 53 262 0.0 1.7 0.00 0.00 0.00 67 1011.0
20260506184709 53 262 0.0 1.7 0.00 0.00 0.00 67 1011.0
20260506184207 53 262 0.0 1.7 0.00 0.00 0.00 67 1010.8
20260506183704 53 262 0.0 1.7 0.00 0.00 0.00 67 1010.8
20260506182706 53 262 0.0 1.7 0.00 0.00 0.00 67 1010.7
20260506182205 53 262 0.0 2.6 0.00 0.00 0.00 67 1010.7
20260506180204 53 248 0.0 1.7 0.00 0.00 0.00 67 1010.7
20260506175705 53 248 0.0 1.7 0.00 0.00 0.00 67 1010.6
20260506175204 53 248 0.0 0.9 0.00 0.00 0.00 68 1010.6
20260506174705 53 248 0.0 1.7 0.00 0.00 0.00 67 1010.5
20260506174204 53 248 0.0 1.7 0.00 0.00 0.00 68 1010.5
20260506173704 53 248 0.0 1.7 0.00 0.00 0.00 67 1010.4
20260506173209 53 248 0.0 1.7 0.00 0.00 0.00 67 1010.4
20260506172703 53 248 0.0 2.6 0.00 0.00 0.00 67 1010.4
20260506172205 54 248 0.0 2.6 0.00 0.00 0.00 67 1010.4
20260506171704 54 248 0.0 2.6 0.00 0.00 0.00 67 1010.4
20260506171208 54 247 0.0 1.7 0.00 0.00 0.00 67 1010.3
20260506170704 54 247 0.0 1.7 0.00 0.00 0.00 67 1010.3
20260506165705 54 245 0.0 0.9 0.00 0.00 0.00 67 1010.3
20260506165204 54 245 0.0 0.9 0.00 0.00 0.00 67 1010.3
20260506164705 54 245 0.0 1.7 0.00 0.00 0.00 66 1010.3
20260506164204 54 245 0.0 1.7 0.00 0.00 0.00 65 1010.2
20260506163706 54 245 0.0 1.7 0.00 0.00 0.00 64 1010.3
20260506163208 54 245 0.0 4.3 0.00 0.00 0.00 64 1010.3